Regional Weather Roundup
Issued by NWS

Home | Current Version | Previous Version | Text Only | Print | Product List | Glossary Off
Versions: 1 2 3 4 5 6 7 8 9 10 11 12 13 14 15 16 17 18 19 20 21 22 23 24 25 26 27 28 29 30 31 32 33 34 35 36 37 38 39 40 41 42 43 44 45 46 47 48 49 50

587
ASUS43 KDMX 271706
RWRIA

WEATHER ROUNDUP FOR IOWA
NATIONAL WEATHER SERVICE DES MOINES IA
1200 PM CDT SUN MAY 27 2018

NOTE: "FAIR" INDICATES FEW OR NO CLOUDS BELOW 12,000 FEET WITH NO
SIGNIFICANT WEATHER AND/OR OBSTRUCTIONS TO VISIBILITY.

* - THESE STATIONS ARE NOT NWS STATIONS...THUS NOT UNDER NWS
QUALITY CONTROL.  THEY ALSO DO NOT REPORT WEATHER SUCH
AS PRECIPITATION OR FOG.

IAZ001>003-012>014-020>022-031>034-043>046-271800-
   NORTHWEST IOWA

CITY           SKY/WX    TMP DP  RH WIND       PRES   REMARKS
CARROLL *      MOSUNNY   97  50  20 W14       29.86S HX  94
CHEROKEE *     SUNNY     92  60  33 W7        29.84S HX  92
DENISON *      SUNNY     91  59  33 CALM      29.88S HX  90
LE MARS *      SUNNY     95  57  28 S12       29.82S HX  94
ORANGE CITY *  SUNNY     93  54  26 W9        29.84S HX  91
SHELDON *      SUNNY     97  48  19 SW13      29.82S HX  93
SIOUX CITY     SUNNY     97  58  27 S17G25    29.82F HX  96
SPENCER        SUNNY     97  57  26 W7        29.84S HX  96
STORM LAKE *   SUNNY     95  52  23 W9G17     29.86S HX  92
$$

IAZ055>058-069>071-079>083-090>094-271800-
   SOUTHWEST IOWA

CITY           SKY/WX    TMP DP  RH WIND       PRES   REMARKS
ATLANTIC *     SUNNY     93  59  31 W7        29.87F HX  92
AUDUBON *      CLOUDY    93  57  29 SW3       29.89S HX  92
CLARINDA *     SUNNY     93  64  38 CALM      29.90S HX  95
COUNCIL BLFS * SUNNY     90  66  45 SW7       29.88S HX  92
CRESTON *      SUNNY     91  64  40 W9        29.91R HX  93
HARLAN  *      SUNNY     93  59  31 SW10      29.90S HX  92
LAMONI         SUNNY     89  69  51 NW9       29.89R HX  93
RED OAK *      SUNNY     93  63  36 W5        29.88S HX  94
SHENANDOAH *   SUNNY     93  61  33 VRB5      29.88S HX  93
$$

IAZ047>049-059>061-072>074-084-271800-
   CENTRAL IOWA

CITY           SKY/WX    TMP DP  RH WIND       PRES   REMARKS
AMES           CLOUDY    93  63  36 VRB3      29.85S HX  94
ANKENY *       CLOUDY    91  68  46 CALM      29.86S HX  95
BOONE *        CLOUDY    95  64  36 SW7       29.85F HX  97
CHARITON *     SUNNY     90  72  55 VRB3      29.88R HX  96
DES MOINES     CLOUDY    93  68  43 CALM      29.85S HX  97
GRINNELL*      CLOUDY    91  66  43 CALM      29.88S HX  94
KNOXVILLE *    SUNNY     91  68  46 S5        29.86R HX  95
MARSHALLTOWN   CLOUDY    93  62  35 CALM      29.86R HX  93
NEWTON *       CLOUDY    95  59  30 W3G13     29.86S HX  94
PELLA *        CLOUDY    91  71  52 CALM      29.88R HX  97
PERRY *        FAIR      92  53  26 W5        29.86S HX  89
$$

IAZ004>006-015-016-023>025-035-036-271800-
   NORTH CENTRAL IOWA

CITY           SKY/WX    TMP DP  RH WIND       PRES   REMARKS
ALGONA *       MOSUNNY   95  57  28 SE8       29.85S HX  94
CLARION *      SUNNY     97  50  20 SE7       29.86S HX  94
ESTHERVILLE    CLOUDY    91  58  32 SE9       29.85R HX  90
FORT DODGE *   SUNNY     94  60  32 S3        29.86S HX  94
MASON CITY     CLOUDY    95  57  27 CALM      29.88R HX  94
FOREST CITY *  FAIR      95  54  24 NE3       29.87R HX  93
WEBSTER CITY * MOSUNNY   97  48  19 S12       29.83F HX  93
IOWA FALLS *   FAIR      94  57  28 CALM      29.88S HX  93
$$

IAZ007>011-017>019-026>030-037>042-050>054-066-271800-
   NORTHEAST IOWA

CITY           SKY/WX    TMP DP  RH WIND       PRES   REMARKS
CEDAR RAPIDS   FAIR      89  71  55 VRB3      29.86S HX  95
CHARLES CITY * FAIR      93  52  24 N8        29.88S HX  90
CLINTON *        N/A     91  72  53 S8        29.88S HX  98
DECORAH *      FAIR      88  66  48 CALM      29.88R HX  90
DUBUQUE        FAIR      87  73  62 SW5       29.88S HX  94
MONTICELLO *   FAIR      90  72  55 W5        29.86S HX  96
OELWEIN *      FAIR      90  63  40 N5        29.88S HX  90
WATERLOO       FAIR      93  63  36 CALM      29.86R HX  94
$$

IAZ064-065-067-068-078-271800-
   EAST CENTRAL IOWA

CITY           SKY/WX    TMP DP  RH WIND       PRES   REMARKS
DAVENPORT      FAIR      91  70  49 S8        29.88F HX  96
IOWA CITY      FAIR      90  73  57 SW5       29.87S HX  98
MT. PLEASANT * SUNNY     90  72  55 S3        29.88R HX  96
MUSCATINE *    FAIR      91  75  59 VRB6G12   29.86S HX 102
QUAD CITIES    FAIR      92  72  51 SW7       29.86R HX  99
$$

IAZ062-063-075>077-085>089-095>099-271800-
   SOUTHEAST IOWA

CITY           SKY/WX    TMP DP  RH WIND       PRES   REMARKS
BURLINGTON     SUNNY     88  74  63 CALM      29.87S HX  96
FAIRFIELD *    SUNNY     91  70  49 VRB6      29.87S HX  97
FORT MADISON * SUNNY     90  73  58 CALM      29.89R HX  98
KEOKUK *       SUNNY     90  73  58 VRB3      29.87S HX  98
OSKALOOSA *    FAIR      91  68  47 CALM      29.87S HX  94
CENTERVILLE *    N/A     90  73  58 CALM      29.90S HX  98
OTTUMWA        SUNNY     90  72  55 VRB3      29.87R HX  97
WASHINGTON *   SUNNY     91  73  55 S9        29.88S HX 100
$$

ABBREVIATIONS USED IN REMARKS
   TC - TEMPERATURES IN CELSIUS
  WCI - WIND CHILL INDEX
   HX - HEAT INDEX
  VSB - VISIBILITY
$$





USA.gov is the U.S. government's official web portal to all federal, state and local government web resources and services.